Location: St. Louis
(38.6270°N, 90.1994°W)
Time: 02:44:03
(UTC-06:00)

Transit 2A - Pass Details

Date: 08 December 2021
Orbit: 591 x 966 km, 66.7° (Epoch: 24 January)

Event Time Altitude Azimuth Distance (km) Brightness Sun altitude
Rises 22:08:49 0° 194° (SSW) 3,233 - -62.7°
Reaches altitude 10° 22:11:09 10° 190° (S) 2,366 - -63.1°
Maximum altitude 22:16:31 56° 113° (ESE) 1,012 - -64.1°
Drops below altitude 10° 22:22:26 10° 36° (NE) 2,611 - -65.0°
Sets 22:25:06 0° 33° (NNE) 3,596 - -65.5°
